Find OneWeb SL0053

NORAD ID: 45157 Int'l Des: 2020-008 Owner: ONEWEB Country: UK Constellation: oneweb operational
LEOCIRCULARPOLARONEWEB_TYPE

Current View

Loading 3D Globe...

About OneWeb SL0053

Description loading...

Upcoming Passes

Passes for default location (London). Set your location on the main map for personalized predictions.

Altitude History

Loading altitude history...

Two-Line Element Set

1 45157U 20008AC 26150.63833676 -.00000749 00000-0 -21823-2 0 9998
2 45157 87.8845 39.7792 0002289 78.0266 282.1118 13.10371184305618
Epoch: May 30, 2026 • Age: 10 hours

Current Status

Altitude 1250.9 km
Velocity 7.23 km/s
Sub-Earth Point -75.21°S, 47.61°W
Launch Date Feb 6, 2020
Age 6.3 years
Type internet

Technical Details

Classification Payload
Mass 148.00 kg
Dry Mass 140.00 kg
Total Mass 148.00 kg
Length 1.30 m
Diameter 1.00 m
Span 5.00 m
Shape Trapezoid+2 pan
Manufacturer ONEWUS
Bus Type ARROW
Phase Status In Orbit
Owner/State ONEWEB/UK

Most Searched